#timestamp,LO_Frequency,Hit,StdDev 
1615802415.1,286046997.9,N
1615802435.9,286046995.4,Y
1615802455.7,286046999.0,P
1615802475.5,286046997.7,N
1615802495.4,286046997.8,N
1615802515.2,286046998.0,N
1615802535.0,286046997.7,Y
1615802535.9,286046997.7,P
1615802555.8,286046999.0,P
1615802575.6,286046998.9,N
1615802595.5,286046998.9,N
1615802615.3,286046998.9,N
1615802635.1,286046999.4,N
1615802655.9,286046996.5,Y
1615802675.7,286046998.6,P
1615802695.5,286047000.3,P
1615802715.4,286047000.9,N
1615802735.2,286047001.1,N
1615802755.1,286046998.5,N
1615802756.0,286046998.5,N
1615802775.8,286047000.9,N
1615802795.6,286046999.9,N
1615802815.5,286047001.4,N
1615802835.3,286047001.7,N
1615802855.2,286047001.9,N
1615802875.9,286047002.6,N
1615802895.7,286047001.3,N
1615802915.6,286047002.0,N
1615802935.4,286047000.2,N
1615802955.2,286047000.5,N
1615802975.1,286047002.8,N
1615802976.0,286047002.8,N
1615802995.8,286047001.6,N
1615803015.7,286047002.0,N
1615803035.5,286047000.0,N
1615803055.3,286047002.3,N
1615803075.2,286046999.7,N
1615803095.0,286047000.7,N
1615803095.9,286047000.7,N
1615803115.8,286047001.1,N
1615803135.6,286046998.8,N
1615803155.4,286046998.6,N
1615803175.3,286046998.7,N
1615803195.1,286047001.1,N
1615803215.8,286046998.2,N
1615803235.7,286046998.1,N
1615803255.5,286046998.2,N
1615803275.4,286046999.5,N
1615803295.2,286046996.6,N
1615803315.0,286046997.7,N
1615803346.0,286046997.9,E
1615803355.9,286046999.6,N
1615803375.7,286047001.2,P
1615803395.6,286046998.3,N
1615803415.4,286046999.3,N
1615803435.2,286046999.4,N
1615803455.1,286047002.8,N
1615803456.0,286047002.8,N
1615803475.8,286047000.1,N
1615803495.7,286047002.8,N
1615803515.5,286046999.8,N
1615803535.3,286047000.4,N
1615803555.2,286047002.6,N
1615803575.0,286047000.1,N
1615803575.9,286047000.1,N
1615803595.8,286047000.9,N
1615803615.6,286047000.0,N
1615803635.4,286047000.8,N
1615803655.3,286047000.7,N
1615803675.1,286047000.7,N
1615803695.8,286047001.1,N
1615803715.7,286046999.0,N
1615803735.5,286046997.2,N
1615803755.4,286046999.4,N
1615803775.2,286046996.5,N
1615803795.0,286046998.1,N
1615803795.9,286046998.1,N
1615803815.8,286047000.1,N
1615803835.6,286047000.6,N
1615803855.4,286046998.1,N
1615803875.3,286046999.4,N
1615803895.1,286046999.5,N
1615803915.9,286046996.7,N
1615803935.7,286046995.4,N
1615803955.5,286046999.2,N
1615803975.4,286046995.3,N
1615803995.2,286046994.9,N
1615804015.0,286046995.0,N
1615804015.9,286046995.0,N
1615804035.8,286046995.5,N
1615804055.6,286046996.4,N
1615804075.5,286046994.8,N
1615804095.3,286046991.8,Y
1615804115.1,286046994.1,P
1615804135.9,286046996.4,N
1615804155.7,286046993.9,P
1615804175.5,286046994.4,Y
1615804195.4,286046998.9,P
1615804215.2,286046999.0,N
1615804235.1,286046998.6,N
1615804236.0,286046998.6,N
1615804255.8,286046999.1,N
1615804275.6,286046999.1,N
1615804295.5,286046999.6,N
1615804315.3,286046999.1,N
1615804335.1,286046999.2,N
1615804355.9,286046999.5,N
1615804375.7,286046997.3,N
1615804395.6,286046996.5,Y
1615804415.4,286047000.8,P
1615804435.2,286046998.3,N
1615804455.1,286046998.6,N
1615804456.0,286046998.6,N
1615804475.8,286046999.6,N
1615804495.6,286046999.0,N
1615804515.5,286046998.9,N
1615804565.4,286046998.5,E
1615804575.3,286047001.2,N
1615804595.1,286047000.4,P
1615804615.9,286047000.0,N
1615804635.7,286047001.8,Y
1615804655.5,286046998.1,P
1615804675.4,286046999.9,N
1615804695.2,286046998.2,N
1615804715.0,286047000.4,N
1615804715.9,286047000.4,N
1615804735.8,286047001.0,N
1615804755.6,286047000.7,N
1615804775.5,286047000.9,N
1615804795.3,286046998.5,N
1615804815.1,286046998.9,N
1615804835.9,286046998.9,N
1615804855.7,286047000.2,N
1615804875.5,286047000.4,N
1615804895.4,286046999.8,N
1615804915.2,286047001.6,N
1615804935.1,286047003.1,N
1615804936.0,286047003.1,N
1615804955.8,286047001.3,N
1615804975.6,286047002.3,N
1615804995.5,286047002.7,N
1615805015.3,286047002.0,N
1615805035.1,286047001.4,N
1615805055.9,286047002.0,N
1615805075.7,286047004.1,N
1615805095.6,286047005.7,Y
1615805115.4,286047005.2,P
1615805135.2,286047004.6,N
1615805155.1,286047005.8,N
1615805156.0,286047005.8,N
1615805175.8,286047005.7,Y
1615805195.6,286046998.2,P
1615805215.5,286046998.2,N
1615805235.3,286047000.5,N
1615805255.2,286047001.6,N
1615805275.9,286047002.0,N
1615805295.7,286047002.5,N
1615805315.6,286046999.8,N
1615805335.4,286046999.9,N
1615805355.2,286047000.3,N
1615805375.1,286047000.3,N
1615805376.0,286047000.3,N
1615805395.8,286047002.1,N
1615805415.7,286047004.6,N
1615805435.5,286047004.8,N
1615805455.3,286047006.0,N
1615805475.2,286047001.3,N
1615805495.0,286047001.5,N
1615805495.9,286047001.5,N
1615805515.7,286047001.8,N
1615805535.6,286047002.5,N
1615805555.4,286047003.9,N
1615805575.3,286047005.2,N
1615805595.1,286047004.8,N
1615805596.0,286047004.8,N
1615805615.8,286047005.8,N
1615805635.7,286047005.6,N
1615805655.5,286047005.9,N
1615805675.3,286047007.1,Y
1615805695.2,286047001.6,P
1615805715.0,286046999.9,N
1615805715.9,286046999.9,N
1615805735.8,286047000.4,N
1615805755.6,286046999.9,N
1615805775.4,286047000.0,N
1615805795.3,286046998.7,N
1615805815.1,286047000.7,N
1615805835.8,286046998.6,N
1615805855.7,286047004.4,Y
1615805875.5,286047000.4,P
1615805895.4,286047000.3,P
1615805915.2,286047000.1,N
1615805935.0,286047002.5,Y
1615805935.9,286047002.5,P
1615805955.8,286046998.9,N
1615805975.6,286047001.1,N
1615805995.5,286046998.1,N
